Hurricane Symbol View the latest observations near Atlantic Remnants Of Alberto.

Station KYWF1 - 8724580 - Key West, FL Image indicating link to RSS feed of recent meteorological observations for station KYWF1


Conditions at KYWF1 as of
(5:30 pm EDT)
2130 GMT on 06/20/2024:
     

Click on the graph icon in the table below to see a time series plot of the last five days of that observation.

5-day plot - Wind Direction Wind Direction (WDIR):ESE ( 110 deg true )
5-day plot - Wind Speed Wind Speed (WSPD): 11.1 kts
5-day plot - Wind Gust Wind Gust (GST): 20.0 kts
5-day plot - Atmospheric Pressure Atmospheric Pressure (PRES):30.01 in
5-day plot - Air Temperature Air Temperature (ATMP): 90.1 °F
5-day plot - Water Temperature Water Temperature (WTMP): 85.1 °F
5-day plot - Wind Speed at 10 Meters Wind Speed at 10 meters (WSPD10M): 9.7 kts
5-day plot - Wind Speed at 20 Meters Wind Speed at 20 meters (WSPD20M): 11.7 kts
5-day plot -  Wind Speed, Wind Gust and Atmospheric Pressure Combined plot of Wind Speed, Gust, and Air Pressure
NOS Water Level Observation Network Water Level
Previous observations
TIME
(EDT)
5-day plot - Wind Direction
WDIR
 
5-day plot - Wind Speed
WSPD
kts
5-day plot - Wind Gust
GST
kts
5-day plot - Wave Height
WVHT
ft
5-day plot - Dominant Wave Period
DPD
sec
5-day plot - Average Wave Period
APD
sec
5-day plot - Mean Wave Direction
MWD
 
5-day plot - Atmospheric Pressure
PRES
in
5-day plot - Pressure Tendency
PTDY
in
5-day plot - Air Temperature
ATMP
°F
5-day plot - Water Temperature
WTMP
°F
5-day plot - Dew Point
DEWP
°F
5-day plot - Salinity
SAL
psu
5-day plot - Visibility
VIS
nmi
5-day plot - Tide (above MLLW)
TIDE
ft
2024-06-20 05:24 pmESE 9.9 15.9----30.01- 90.5 85.3----
2024-06-20 05:18 pmESE 8.9 18.1----30.02- 90.7 85.3----
2024-06-20 05:12 pmESE 11.1 19.0----30.01- 90.5 85.3----
2024-06-20 05:06 pmESE 12.0 20.0----30.01- 90.5 85.3----
2024-06-20 05:00 pmESE 11.1 18.1----30.01-0.04 90.9 85.3----
2024-06-20 04:54 pm E 13.0 20.0----30.01- 89.6 85.3----
2024-06-20 04:48 pmESE 14.0 21.0----30.01- 89.8 85.3----
2024-06-20 04:42 pm E 14.0 22.0----30.01- 89.2 85.3----
2024-06-20 04:36 pm E 11.1 19.0----30.01- 89.6 85.3----
2024-06-20 04:30 pm E 14.0 22.0----30.01- 89.2 85.3----
2024-06-20 04:24 pmESE 12.0 22.0----30.01- 89.2 85.3----
2024-06-20 04:18 pmESE 12.0 20.0----30.00- 89.4 85.3----
2024-06-20 04:12 pmESE 13.0 20.0----30.01- 89.8 85.3----
2024-06-20 04:06 pmESE 8.9 19.0----30.01- 89.4 85.3----
2024-06-20 04:00 pmESE 11.1 19.0----30.01-0.04 89.4 85.1----
2024-06-20 03:54 pm E 12.0 20.0----30.01- 89.4 85.1----
2024-06-20 03:48 pm E 14.0 22.9----30.01- 89.4 85.1----
2024-06-20 03:42 pmESE 13.0 19.0----30.01- 90.3 85.1----
2024-06-20 03:36 pmESE 12.0 18.1----30.02- 90.7 85.1----
2024-06-20 03:30 pmESE 12.0 17.1----30.02-- 85.1----
2024-06-20 03:24 pm E 9.9 18.1----30.02-- 85.1----
2024-06-20 03:18 pmESE 9.9 15.0----30.03- 88.7 85.1----
2024-06-20 03:12 pm E 7.0 15.9----30.03- 87.8 85.1----
2024-06-20 03:06 pmESE 12.0 17.1----30.03- 87.8 85.1----
2024-06-20 03:00 pmESE 11.1 15.0----30.04+0.00 88.2 85.1----
2024-06-20 02:54 pmESE 8.9 15.0----30.04- 87.6 85.1----
2024-06-20 02:48 pm E 8.0 15.0----30.04- 87.1 85.1----
2024-06-20 02:42 pmESE 9.9 17.1----30.04- 87.3 85.1----
2024-06-20 02:36 pmESE 11.1 18.1----30.04- 87.6 85.1----
2024-06-20 02:30 pmESE 12.0 19.0----30.04- 88.3 85.1----
2024-06-20 02:24 pmESE 13.0 18.1----30.05- 88.5 85.1----
2024-06-20 02:18 pmESE 12.0 15.9----30.05- 88.5 85.1----
2024-06-20 02:12 pm E 8.9 17.1----30.05- 88.3 85.1----
2024-06-20 02:06 pmESE 12.0 19.0----30.05- 89.1 85.1----
2024-06-20 02:00 pmESE 8.9 18.1----30.05+0.00 88.0 84.9----
2024-06-20 01:54 pmESE 9.9 17.1----30.05- 87.8 84.9----
2024-06-20 01:48 pmESE 11.1 17.1----30.05- 87.3 84.9----
2024-06-20 01:42 pmESE 9.9 15.9----30.05- 87.3 84.9----
2024-06-20 01:36 pmESE 8.0 17.1----30.05- 87.3 84.9----
2024-06-20 01:30 pmESE 8.9 17.1----30.05- 86.9 84.9----
2024-06-20 01:24 pmESE 8.9 14.0----30.05- 86.7 84.9----
2024-06-20 01:18 pm E 8.0 15.0----30.05- 86.2 84.9----
2024-06-20 01:12 pmESE 8.0 15.0----30.05- 86.0 84.9----
2024-06-20 01:06 pm E 12.0 17.1----30.05- 85.3 84.9----
2024-06-20 01:00 pm E 9.9 15.9----30.05+0.04 85.3 84.9----
2024-06-20 12:54 pm E 8.9 17.1----30.05- 85.3 84.9----
2024-06-20 12:48 pmESE 8.9 17.1----30.05- 85.8 84.9----
2024-06-20 12:42 pmESE 8.0 15.0----30.05- 86.0 84.9----
2024-06-20 12:36 pmESE 11.1 15.9----30.05- 85.8 84.9----
2024-06-20 12:30 pmESE 12.0 17.1----30.05- 85.6 84.9----
2024-06-20 12:24 pm E 9.9 18.1----30.04- 85.1 84.9----
2024-06-20 12:18 pmESE 9.9 19.0----30.05- 84.9 84.9----
2024-06-20 12:12 pm E 13.0 18.1----30.05- 84.7 84.9----
2024-06-20 12:06 pmESE 9.9 15.0----30.05- 84.9 84.9----
2024-06-20 12:00 pm E 8.9 18.1----30.05+0.05 85.1 84.9----
2024-06-20 11:54 am E 11.1 18.1----30.05- 84.9 84.9----
2024-06-20 11:48 am E 8.0 15.0----30.05- 85.1 84.9----
2024-06-20 11:42 amESE 12.0 20.0----30.05- 85.5 84.9----
2024-06-20 11:36 amESE 11.1 18.1----30.05- 85.8 84.9----
2024-06-20 11:30 amESE 11.1 17.1----30.05- 85.5 84.9----
2024-06-20 11:24 amESE 11.1 18.1----30.05- 85.3 84.9----
2024-06-20 11:18 am E 7.0 12.0----30.05- 84.9 84.9----
2024-06-20 11:12 amESE 7.0 13.0----30.05- 84.6 84.9----
2024-06-20 11:06 amESE 8.0 12.0----30.05- 84.2 84.9----
2024-06-20 11:00 amESE 6.0 15.9----30.04+0.05 84.2 84.9----
2024-06-20 10:54 amESE 7.0 15.0----30.04- 84.2 84.9----
2024-06-20 10:48 amESE 12.0 18.1----30.04- 83.7 84.9----
2024-06-20 10:42 amESE 12.0 18.1----30.04- 83.7 84.9----
2024-06-20 10:36 amESE 12.0 15.9----30.04- 83.5 84.9----
2024-06-20 10:30 amESE 8.9 18.1----30.03- 84.0 84.9----
2024-06-20 10:24 amESE 11.1 19.0----30.03- 84.0 84.9----
2024-06-20 10:18 am E 11.1 18.1----30.03- 84.4 84.9----
2024-06-20 10:12 amESE 8.9 18.1----30.03- 85.5 84.9----
2024-06-20 10:06 amESE 9.9 15.0----30.02- 86.0 84.9----
2024-06-20 10:00 am E 8.0 15.9----30.01+0.05 85.5 84.9----
2024-06-20 09:54 amESE 7.0 13.0----30.01- 84.6 84.9----
2024-06-20 09:48 am E 8.9 15.9----30.01- 83.5 84.9----
2024-06-20 09:42 amESE 11.1 15.0----30.01- 82.2 84.9----
2024-06-20 09:36 am E 8.0 21.0----30.01- 81.5 84.9----
2024-06-20 09:30 amESE 13.0 17.1----30.01- 81.0 84.9----
2024-06-20 09:24 amESE 8.0 17.1----30.01- 81.0 84.9----
2024-06-20 09:18 am E 12.0 22.0----30.01- 81.1 84.9----
2024-06-20 09:12 am E 8.0 18.1----30.00- 82.0 84.9----
2024-06-20 09:06 am E 8.9 15.9----30.00- 82.2 84.9----
2024-06-20 09:00 am E 8.9 14.0----30.00+0.04 82.0 84.9----
2024-06-20 08:54 am E 8.0 17.1----30.00- 82.0 84.9----
2024-06-20 08:48 am E 8.9 15.0----30.00- 81.9 85.1----
2024-06-20 08:42 am E 8.0 13.0----30.00- 82.0 85.1----
2024-06-20 08:36 am E 8.0 15.0----30.00- 82.0 85.1----
2024-06-20 08:30 am E 8.0 17.1----30.01- 81.9 84.9----
2024-06-20 08:24 am E 8.0 12.0----30.01- 81.5 84.9----
2024-06-20 08:18 am E 6.0 8.9----30.01- 81.1 84.9----
2024-06-20 08:12 am E 5.1 8.9----30.00- 81.0 85.1----
2024-06-20 08:06 am E 4.1 9.9----30.00- 80.8 84.7----
2024-06-20 08:00 am E 7.0 12.0----30.00+0.04 80.4 84.7----
2024-06-20 07:54 am E 5.1 9.9----29.99- 80.2 84.9----
2024-06-20 07:48 am E 6.0 9.9----30.00- 80.1 84.9----
2024-06-20 07:42 am E 5.1 9.9----29.99- 80.1 85.1----
2024-06-20 07:36 am E 6.0 9.9----29.99- 80.1 85.1----
2024-06-20 07:30 am E 6.0 11.1----29.99- 80.1 85.1----
2024-06-20 07:24 am E 5.1 8.9----29.98- 79.9 85.1----
2024-06-20 07:18 am E 5.1 7.0----29.97- 79.7 85.1----
2024-06-20 07:12 amENE 5.1 7.0----29.96- 79.3 85.1----
2024-06-20 07:06 am E 4.1 7.0----29.96- 79.2 85.1----
2024-06-20 07:00 am E 4.1 7.0----29.96+0.00 79.2 85.1----
2024-06-20 06:54 am E 2.9 6.0----29.96- 79.2 85.1----
2024-06-20 06:48 am E 4.1 11.1----29.96- 79.2 85.1----
2024-06-20 06:42 am E 4.1 6.0----29.96- 79.2 85.1----
2024-06-20 06:36 am E 4.1 8.0----29.96- 79.3 85.1----
2024-06-20 06:30 amENE 5.1 7.0----29.96- 79.3 85.1----
2024-06-20 06:24 am E 4.1 8.0----29.96- 79.3 85.1----
2024-06-20 06:18 am E 4.1 7.0----29.96- 79.3 85.1----
2024-06-20 06:12 amENE 2.9 6.0----29.96- 79.2 85.1----
2024-06-20 06:06 amENE 5.1 6.0----29.96- 78.8 85.1----
2024-06-20 06:00 am NE 2.9 4.1----29.96+0.00 78.8 85.1----
2024-06-20 05:54 am NE 2.9 4.1----29.96- 78.8 85.1----
2024-06-20 05:48 am E 4.1 6.0----29.96- 78.6 85.1----
2024-06-20 05:42 am E 4.1 7.0----29.96- 78.4 85.1----
2024-06-20 05:36 am E 5.1 8.0----29.96- 77.7 85.1----
2024-06-20 05:30 am E 4.1 6.0----29.96- 77.2 85.1----
2024-06-20 05:24 amENE 4.1 5.1----29.96- 77.0 85.1----
2024-06-20 05:18 amENE 4.1 5.1----29.96- 77.0 85.1----
2024-06-20 05:12 am NE 4.1 5.1----29.96- 76.8 85.1----
2024-06-20 05:06 amENE 4.1 7.0----29.96- 76.5 85.1----
2024-06-20 05:00 amENE 5.1 7.0----29.96-0.02 75.9 85.1----
2024-06-20 04:54 amENE 6.0 8.0----29.96- 75.7 85.1----
2024-06-20 04:48 am E 5.1 14.0----29.96- 75.7 85.1----
2024-06-20 04:42 am E 11.1 25.1----29.97- 77.2 85.1----
2024-06-20 04:36 amESE 11.1 15.9----29.96- 81.7 85.1----
2024-06-20 04:30 am E 6.0 11.1----29.96- 82.2 85.1----
2024-06-20 04:24 am E 6.0 12.0----29.96- 82.0 85.1----
2024-06-20 04:18 am E 5.1 7.0----29.96- 82.0 85.1----
2024-06-20 04:12 am E 6.0 9.9----29.96- 82.0 85.1----
2024-06-20 04:06 am E 4.1 8.0----29.96- 82.0 85.1----
2024-06-20 04:00 am E 5.1 9.9----29.96-0.01 82.2 85.1----
2024-06-20 03:54 am E 6.0 8.9----29.96- 82.2 85.1----
2024-06-20 03:48 am E 5.1 14.0----29.96- 82.2 85.1----
2024-06-20 03:42 am E 8.0 12.0----29.96- 82.2 85.1----
2024-06-20 03:36 am E 6.0 11.1----29.96- 82.2 85.1----
2024-06-20 03:30 am E 5.1 8.9----29.96- 82.2 85.1----
2024-06-20 03:24 am E 6.0 11.1----29.96- 82.2 85.1----
2024-06-20 03:18 am E 6.0 13.0----29.96- 82.0 85.1----
2024-06-20 03:12 am E 5.1 8.9----29.96- 82.0 85.1----
2024-06-20 03:06 am E 7.0 11.1----29.96- 82.0 85.1----
2024-06-20 03:00 am E 5.1 9.9----29.96-0.02 82.0 85.1----
2024-06-20 02:54 am E 5.1 9.9----29.96- 81.9 85.1----
2024-06-20 02:48 am E 5.1 9.9----29.96- 81.9 85.1----
2024-06-20 02:42 am E 5.1 8.0----29.96- 81.7 85.1----
2024-06-20 02:36 am E 6.0 8.9----29.96- 81.7 85.1----
2024-06-20 02:30 am E 5.1 8.9----29.96- 81.7 85.1----
2024-06-20 02:24 am E 6.0 9.9----29.96- 81.5 85.1----
2024-06-20 02:18 am E 5.1 9.9----29.97- 81.7 85.1----
2024-06-20 02:12 am E 5.1 8.0----29.97- 81.9 85.1----
2024-06-20 02:06 am E 5.1 8.9----29.97- 81.9 85.1----
2024-06-20 02:00 am E 5.1 8.9----29.97-0.01 81.9 85.1----
2024-06-20 01:54 am E 4.1 8.9----29.97- 81.9 85.1----
2024-06-20 01:48 am E 5.1 8.9----29.97- 81.9 85.1----
2024-06-20 01:42 am E 6.0 8.0----29.97- 81.9 85.1----
2024-06-20 01:36 am E 6.0 9.9----29.97- 81.9 85.1----
2024-06-20 01:30 am E 5.1 8.9----29.97- 81.9 85.1----
2024-06-20 01:24 amENE 7.0 11.1----29.97- 82.0 85.1----
2024-06-20 01:18 am E 4.1 8.0----29.97- 82.0 85.1----
2024-06-20 01:12 am E 7.0 11.1----29.97- 82.2 85.1----
2024-06-20 01:06 am E 5.1 9.9----29.97- 82.0 85.1----
2024-06-20 01:00 am E 4.1 8.9----29.97-0.01 82.2 85.1----
2024-06-20 12:54 am E 6.0 11.1----29.97- 82.2 85.1----
2024-06-20 12:48 am E 5.1 9.9----29.97- 82.2 85.1----
2024-06-20 12:42 am E 7.0 15.0----29.97- 82.2 85.1----
2024-06-20 12:36 am E 6.0 14.0----29.97- 82.2 85.1----
2024-06-20 12:30 am E 7.0 11.1----29.97- 82.2 85.1----
2024-06-20 12:24 am E 7.0 14.0----29.97- 82.4 85.1----
2024-06-20 12:18 am E 7.0 12.0----29.98- 82.4 85.1----
2024-06-20 12:12 am E 6.0 12.0----29.98- 82.6 85.1----
2024-06-20 12:06 am E 8.9 15.0----29.98- 82.6 85.3----
2024-06-20 12:00 am E 7.0 15.0----29.98+0.00 82.8 85.3----
2024-06-19 11:54 pm E 6.0 9.9----29.98- 82.8 85.3----
2024-06-19 11:48 pm E 8.9 15.0----29.98- 82.8 85.3----
2024-06-19 11:42 pm E 8.0 15.0----29.98- 82.8 85.3----
2024-06-19 11:36 pm E 8.0 13.0----29.98- 82.8 85.3----
2024-06-19 11:30 pm E 7.0 12.0----29.98- 82.8 85.3----
2024-06-19 11:24 pm E 6.0 13.0----29.98- 82.8 85.3----
2024-06-19 11:18 pm E 5.1 12.0----29.98- 82.9 85.3----
2024-06-19 11:12 pm E 5.1 15.9----29.98- 82.9 85.3----
2024-06-19 11:06 pm E 7.0 15.0----29.98- 82.9 85.3----
2024-06-19 11:00 pm E 7.0 14.0----29.98+0.02 82.9 85.3----
2024-06-19 10:54 pm E 6.0 11.1----29.98- 83.1 85.3----
2024-06-19 10:48 pm E 8.0 15.0----29.98- 83.1 85.3----
2024-06-19 10:42 pm E 8.9 19.0----29.98- 83.1 85.3----
2024-06-19 10:36 pm E 8.0 14.0----29.98- 83.1 85.3----
2024-06-19 10:30 pm E 9.9 20.0----29.98- 83.1 85.3----
2024-06-19 10:24 pm E 8.0 13.0----29.98- 83.1 85.3----
2024-06-19 10:18 pm E 8.0 12.0----29.98- 83.1 85.3----
2024-06-19 10:12 pm E 8.0 14.0----29.98- 83.3 85.3----
2024-06-19 10:06 pm E 8.0 15.9----29.98- 83.3 85.3----
2024-06-19 10:00 pm E 8.0 17.1----29.98+0.03 83.3 85.3----
2024-06-19 09:54 pm E 8.9 15.9----29.98- 83.3 85.3----
2024-06-19 09:48 pm E 9.9 17.1----29.98- 83.5 85.3----
2024-06-19 09:42 pm E 8.0 15.9----29.99- 83.5 85.3----
2024-06-19 09:36 pm E 9.9 17.1----29.99- 83.5 85.3----
2024-06-19 09:30 pm E 8.9 20.0----29.99- 83.5 85.3----
2024-06-19 09:24 pm E 8.9 14.0----29.99- 83.7 85.3----
2024-06-19 09:18 pmESE 13.0 17.1----29.99- 83.5 85.5----
2024-06-19 09:12 pm E 8.9 15.0----29.99- 83.7 85.5----
2024-06-19 09:06 pm E 9.9 20.0----29.99- 83.7 85.5----
2024-06-19 09:00 pm E 7.0 18.1----29.98+0.06 83.7 85.5----
2024-06-19 08:54 pm E 8.9 19.0----29.98- 83.7 85.5----
2024-06-19 08:48 pmESE 8.0 19.0----29.98- 83.8 85.5----
2024-06-19 08:42 pmESE 11.1 18.1----29.98- 83.8 85.5----
2024-06-19 08:36 pm E 8.0 17.1----29.98- 84.0 85.5----
2024-06-19 08:30 pm E 12.0 18.1----29.98- 83.8 85.5----
2024-06-19 08:24 pm E 8.0 19.0----29.97- 84.0 85.5----
2024-06-19 08:18 pm E 11.1 17.1----29.97- 84.0 85.5----
2024-06-19 08:12 pm E 9.9 19.0----29.97- 84.0 85.5----
2024-06-19 08:06 pm E 8.0 22.0----29.97- 84.0 85.5----
2024-06-19 08:00 pm E 9.9 19.0----29.96+0.01 84.2 85.5----
2024-06-19 07:54 pmESE 13.0 21.0----29.97- 84.2 85.5----
2024-06-19 07:48 pm E 11.1 19.0----29.97- 84.4 85.5----
2024-06-19 07:42 pm E 9.9 19.0----29.97- 84.4 85.5----
2024-06-19 07:36 pmESE 12.0 20.0----29.97- 84.6 85.5----
2024-06-19 07:30 pm E 9.9 19.0----29.97- 84.4 85.5----
2024-06-19 07:24 pm E 9.9 19.0----29.96- 84.6 85.5----
2024-06-19 07:18 pm E 12.0 18.1----29.96- 84.7 85.6----
2024-06-19 07:12 pmESE 11.1 20.0----29.96- 84.9 85.6----
2024-06-19 07:06 pm E 8.9 15.9----29.95- 84.9 85.6----
2024-06-19 07:00 pm E 12.0 20.0----29.95+0.00 84.9 85.5----
2024-06-19 06:54 pm E 8.9 18.1----29.95- 85.3 85.5----
2024-06-19 06:48 pm E 13.0 22.0----29.94-- 85.5----
2024-06-19 06:42 pm E 12.0 18.1----29.94-- 85.5----
2024-06-19 06:36 pm E 13.0 19.0----29.94-- 85.6----
2024-06-19 06:30 pmESE 14.0 21.0----29.93- 86.2 85.6----
2024-06-19 06:24 pm E 11.1 18.1----29.93- 86.4 85.6----
2024-06-19 06:18 pm E 14.0 21.0----29.93- 87.4-----
2024-06-19 06:12 pmESE 13.0 20.0----29.92- 88.2-----
2024-06-19 06:06 pm E 11.1 19.0----29.92- 88.3-----
2024-06-19 06:00 pm E 14.0 21.0----29.92-0.04 88.3 85.6----
2024-06-19 05:54 pm E 14.0 21.0----29.92- 88.2 85.5----